Skip Page Navigation
NASA JPL Caltech
NASA Logo - Jet Propulsion Laboratory + View the NASA Portal
+ Center for Near-Earth Object Studies
JPL Home Earth Solar System Stars & Galaxies Technology
JPL Solar System Dynamics
BODIES ORBITS EPHEMERIDES TOOLS PHYSICAL DATA DISCOVERY FAQ SITE MAP
JPL Small-Body Database Browser
Search: [ help ]  
(2010 PK9)
Classification: Aten [NEO, PHA]          SPK-ID: 3542519
Ephemeris | Orbit Diagram | Orbital Elements | Mission Design | Physical Parameters | Close-Approach Data ]

[ show orbit diagram ]
Orbital Elements at Epoch 2459000.5 (2020-May-31.0) TDB
Reference: JPL 23 (heliocentric ecliptic J2000)
 Element Value Uncertainty (1-sigma)   Units 
e .6758647855973007 1.537e-07  
a .6820991436904377 2.3784e-09 au
q .2210923521839976 1.0475e-07 au
i 12.5937477962068 2.2032e-05 deg
node 306.5383736889956 8.8891e-06 deg
peri 195.6183203607214 2.1613e-05 deg
M 295.0302116826658 5.6174e-05 deg
tp 2459037.634590091654
(2020-Jul-07.13459009)
3.201e-05 TDB
period 205.7641371355473
0.56
1.0762e-06
2.946e-09
d
yr
n 1.74957601947345 9.1509e-09 deg/d
Q 1.143105935196878 3.9859e-09 au
  Orbit Determination Parameters
   # obs. used (total)      100  
   data-arc span      3286 days (9.00 yr)  
   first obs. used      2010-08-05  
   last obs. used      2019-08-04  
   planetary ephem.      DE431  
   SB-pert. ephem.      SB431-N16  
   condition code      0  
   norm. resid. RMS      .47906  
   source      ORB  
   producer      Otto Matic  
   solution date      2019-Aug-14 05:33:29  

Additional Information
 Earth MOID = .0160944 au 
 Jupiter MOID = 3.88857 au 
 T_jup = 8.149 
[ show covariance matrix ]

Ephemeris | Orbit Diagram | Orbital Elements | Mission Design | Physical Parameters | Close-Approach Data ]

Physical Parameter Table
Parameter Symbol Value Units Sigma Reference Notes
absolute magnitude H 21.8   n/a MPO301659  
diameter diameter 0.143 km 0.008 urn:nasa:pds:neowise_diameters_albedos::2.0[neos] (http://adsabs.harvard.edu/abs/2014ApJ...784..110M)  
geometric albedo albedo 0.138   0.040 urn:nasa:pds:neowise_diameters_albedos::2.0[neos] (http://adsabs.harvard.edu/abs/2014ApJ...784..110M)  

[ hide close-approach data ]
Close-Approach Data   ...sorted by Date/Time (TDB)
Date/Time (TDB) Time Uncertainty
(days_HH:MM)
Body Nominal Distance (au) Minimum Distance (au) Maximum Distance (au) V-relative (km/s) V-infinity (km/s) JD (TDB) Time Uncertainty (minutes) Semi-major axis (km) Semi-minor axis (km) range-LOV angle (deg) N-sigma BP Orbit Ref. Reference Modified
1900-Jun-01 16:40 < 00:01 Mercury 0.0445449038439028 0.0445422317832382 0.0445475765632362 30.9364276446546 30.9363207744266 2415172.194303583 0.361368669709522 302.540103140089 13.9945122139512 63.9911794560664 426256.648467016 T 23 CATAB v2.0f-lin.ifort 2019-Aug-14 05:33:33 2019-Aug-14 05:33
1900-Jul-07 22:08 < 00:01 Venus 0.141663634951161 0.141660624547856 0.141666645364758 31.778176987034 31.7776946119345 2415208.422129477 0.151501476813047 161.994023469041 22.2256811418129 22.2996870113897 373905.947590072 T 23 CATAB v2.0f-lin.ifort 2019-Aug-14 05:33:33 2019-Aug-14 05:33
1900-Jul-27 20:47 < 00:01 Earth 0.217728417754982 0.217725905781383 0.21773092972868 23.8645397788853 23.8640269779097 2415228.366107545 0.13481013199029 125.473602169398 14.2581691158416 3.36175684442503 277433.777612534 T 23 CATAB v2.0f-lin.ifort 2019-Aug-14 05:33:33 2019-Aug-14 05:33
1902-Feb-11 06:38 < 00:01 Mercury 0.0869552585813314 0.0869490239529147 0.0869614938981465 28.165453761802 28.1653936289178 2415791.776159624 0.999678746418466 495.677411608131 10.7986132915401 51.1695079414671 928224.667883114 T 23 CATAB v2.0f-lin.ifort 2019-Aug-14 05:33:33 2019-Aug-14 05:33
1903-Sep-02 16:25 < 00:01 Earth 0.192050840901826 0.192047242545267 0.192054439316256 20.7059092933765 20.7052392408277 2416360.184302017 0.18974624519426 246.594334331934 33.1136757558518 -43.8068697986797 565137.532079921 T 23 CATAB v2.0f-lin.ifort 2019-Aug-14 05:33:33 2019-Aug-14 05:33
1904-Jul-26 08:05 < 00:01 Earth 0.0426652322403322 0.042660764001295 0.0426697005962805 15.8484630932602 15.8445221054585 2416687.836811805 0.373727631639239 249.180146489469 12.1951828759612 -26.6252820590754 239244.858215201 T 23 CATAB v2.0f-lin.ifort 2019-Aug-14 05:33:33 2019-Aug-14 05:33
1907-Apr-13 18:18 < 00:01 Venus 0.116964649009722 0.116954293486645 0.116975004794724 30.3953753270601 30.3947645099738 2417679.262201892 0.512654425807041 585.645613051901 21.8673774737581 28.1678016901069 371158.13806818 T 23 CATAB v2.0f-lin.ifort 2019-Aug-14 05:33:33 2019-Aug-14 05:33
1907-Aug-23 15:07 < 00:01 Earth 0.444180350030746 0.444172135758541 0.444188564320525 30.7220904797791 30.7218952241195 2417811.129753619 0.587507940251703 432.815680277808 34.202189235908 -18.9084069117523 605682.774137562 T 23 CATAB v2.0f-lin.ifort 2019-Aug-14 05:33:33 2019-Aug-14 05:33
1908-Aug-17 14:30 00:01 Earth 0.146395225771523 0.146394812076034 0.146395639470349 14.3282617681034 14.3269914538004 2418171.104340694 1.31156024096448 142.819419016694 19.9920162812898 87.9388621284414 972685.360607203 T 23 CATAB v2.0f-lin.ifort 2019-Aug-14 05:33:33 2019-Aug-14 05:33
1909-Jul-31 06:55 < 00:01 Earth 0.303055419069391 0.303044421798352 0.303066416340654 26.8654526863013 26.8651254218864 2418518.788077997 0.619115522206263 548.54073421515 14.2938519569067 1.36917247053857 105640.853722038 T 23 CATAB v2.0f-lin.ifort 2019-Aug-14 05:33:33 2019-Aug-14 05:33
1912-Sep-02 17:01 < 00:01 Earth 0.142672318092856 0.142666928365729 0.142677708537343 18.1656041531696 18.1645760538239 2419648.208856021 0.102519216825209 574.865652191494 32.2358774144527 -62.2973074767046 553001.917355835 T 23 CATAB v2.0f-lin.ifort 2019-Aug-14 05:33:33 2019-Aug-14 05:33
1913-Jul-24 19:43 < 00:01 Earth 0.0341647902976573 0.0341543640157205 0.0341752179313845 17.6676900060096 17.6632752359302 2419973.321779538 0.151819893884939 620.719097226661 13.2229446664232 33.1177972949629 207559.799821472 T 23 CATAB v2.0f-lin.ifort 2019-Aug-14 05:33:33 2019-Aug-14 05:33
1914-Jan-17 12:19 < 00:01 Venus 0.0904493031418644 0.090434987741344 0.0904636200090651 28.8047040082512 28.8038705063649 2420150.013370778 0.746252122048395 916.421536822031 21.8027520442024 38.8452266231706 382922.418893486 T 23 CATAB v2.0f-lin.ifort 2019-Aug-14 05:33:33 2019-Aug-14 05:33
1915-Sep-12 10:16 00:02 Mercury 0.0884664213180862 0.0884494436373341 0.0884834021510849 25.4077304717162 25.4076649507337 2420752.927521791 1.69099641032946 1187.77953472684 22.7965555340662 -44.5444547441344 409913.566720389 T 23 CATAB v2.0f-lin.ifort 2019-Aug-14 05:33:33 2019-Aug-14 05:33
1916-Aug-26 18:08 < 00:01 Earth 0.361081149612805 0.361067621275126 0.361094678029054 27.5362054516642 27.5359374697036 2421102.255478761 0.863022103763454 725.138398523601 34.4169341830271 -21.5433363083172 542062.464558721 T 23 CATAB v2.0f-lin.ifort 2019-Aug-14 05:33:33 2019-Aug-14 05:33
1917-May-22 04:10 00:01 Mercury 0.0650599776860052 0.0650529892464586 0.0650669744982297 29.9182451904633 29.918169529007 2421370.673495886 1.4457715589887 1217.27266544196 22.4494499164391 -73.3867135093613 415713.485956403 T 23 CATAB v2.0f-lin.ifort 2019-Aug-14 05:33:33 2019-Aug-14 05:33
1917-Aug-09 13:03 00:02 Earth 0.137352696731785 0.137349158026834 0.137356235503507 14.309125827443 14.3077700679995 2421450.044011073 1.98356950687686 232.4081245438 9.59631500957213 -40.6409951502449 1265182.56040274 T 23 CATAB v2.0f-lin.ifort 2019-Aug-14 05:33:33 2019-Aug-14 05:33
1918-Aug-04 09:54 < 00:01 Earth 0.395403512953102 0.395388075839395 0.395418950066808 30.2104353141582 30.2102122568518 2421809.912679322 0.966304748699973 769.781174885796 14.5018137599611 -0.029050399569212 72740.1289535452 T 23 CATAB v2.0f-lin.ifort 2019-Aug-14 05:33:33 2019-Aug-14 05:33
1919-Jan-29 16:05 00:01 Mercury 0.0671044544901828 0.0670950647017646 0.0671138521246315 34.3382137847826 34.3381498708518 2421988.169893796 1.36342947361304 1237.56545009541 22.142171660644 67.781291953955 418989.495682853 T 23 CATAB v2.0f-lin.ifort 2019-Aug-14 05:33:33 2019-Aug-14 05:33
1920-Oct-08 02:08 00:01 Mercury 0.0926223225923596 0.0926034557983009 0.0926411923426566 38.8096310900909 38.8095901197836 2422605.589201135 1.33031244847375 1251.59928201571 21.8773892962555 41.2658970768135 416655.508487724 T 23 CATAB v2.0f-lin.ifort 2019-Aug-14 05:33:33 2019-Aug-14 05:33
1920-Oct-23 19:32 < 00:01 Venus 0.0795476462872405 0.0795332156969636 0.0795620796264899 28.0906204539649 28.0896486295795 2422621.313852681 0.803292871802192 1030.62805807659 21.8285097233577 45.725017494709 384662.352555541 T 23 CATAB v2.0f-lin.ifort 2019-Aug-14 05:33:33 2019-Aug-14 05:33
1921-Aug-31 19:42 00:01 Earth 0.124625454105909 0.124624526447085 0.124626382381443 15.8302735206395 15.8289228927561 2422933.321086197 1.01508465852858 580.78571139858 30.3342781110469 86.5440098556745 587183.040576753 T 23 CATAB v2.0f-lin.ifort 2019-Aug-14 05:33:33 2019-Aug-14 05:33
1922-Jul-25 22:12 < 00:01 Earth 0.124005331707451 0.123989712321081 0.124020951133422 20.6686978783531 20.6676582698963 2423261.424730817 0.461373681476401 786.679312591914 13.8468621895174 8.08573554978316 181038.134836089 T 23 CATAB v2.0f-lin.ifort 2019-Aug-14 05:33:33 2019-Aug-14 05:33
1925-Mar-20 17:08 00:02 Mercury 0.0641654381044416 0.0641343067385917 0.0641965782418133 41.3050025998675 41.3049470323943 2424230.213620664 1.68382188291673 1952.01241693542 18.7027746045911 -37.3098069911447 310078.631236956 T 23 CATAB v2.0f-lin.ifort 2019-Aug-14 05:33:33 2019-Aug-14 05:33
1925-Aug-30 22:22 < 00:01 Earth 0.266067372258157 0.266053483434866 0.266081261305542 23.7992924782873 23.7988716930165 2424393.431765800 0.752790724521566 792.651002347084 34.1091400079782 -29.1329256337004 530377.302617925 T 23 CATAB v2.0f-lin.ifort 2019-Aug-14 05:33:33 2019-Aug-14 05:33
